M I D A S
Marine Information and Data Acquisition System
Tripno 488 of the Zeeleeuw from 2003-04-09 06:23:00 to 2003-04-09 13:32:44
Back to CruiseResearch ActivitiesStationsMapUnderway DataData graphs

EquipmentUnitsComments
TimeDGPSUTC
LatitudeDGPSDM.mWGS84
LongitudeDGPSDM.mWGS84
SpeedMeteo Stationm/sRelative wind speed
DirectionMeteo StationdegRelative wind direction
TemperatureMeteo Stationdeg CelciusAir temperature
PressureMeteo StationPaAtmospheric pressure
HumidityMeteo Station%Relative humidity
Missing or incorrect values are displayed as -999
Metereological data collected by the RV Zeeleeuw from 2003-04-09 06:23:00 to 2003-04-09 13:32:44
                                                                                    Next 1000 lines
Time Latitude Longitude Speed Direction Temperature Pressure Humidity
2003-04-09 06:23:11 51°13.602 2°56.089 1.8 36 1.8 101810 66
2003-04-09 06:23:16 51°13.603 2°56.084 1 97 1.7 101810 66
2003-04-09 06:23:22 51°13.604 2°56.075 1.5 94 1.7 101810 66
2003-04-09 06:23:26 51°13.606 2°56.069 0.9 118 1.7 101810 67
2003-04-09 06:23:32 51°13.608 2°56.06 1.6 140 1.7 101810 67
2003-04-09 06:23:36 51°13.609 2°56.053 1.1 129 1.8 101810 67
2003-04-09 06:23:42 51°13.611 2°56.042 1.5 137 1.8 101810 67
2003-04-09 06:23:46 51°13.613 2°56.034 1 101 1.7 101810 67
2003-04-09 06:23:52 51°13.616 2°56.021 1.4 105 1.7 101810 67
2003-04-09 06:23:56 51°13.618 2°56.013 1.6 125 1.7 101810 67
2003-04-09 06:24:02 51°13.621 2°56 2.5 102 1.7 101810 67
2003-04-09 06:24:07 51°13.623 2°55.988 1.9 83 1.7 101810 67
2003-04-09 06:24:12 51°13.626 2°55.977 1.3 119 1.7 101810 67
2003-04-09 06:24:16 51°13.628 2°55.968 1.5 89 1.7 101810 67
2003-04-09 06:24:22 51°13.632 2°55.955 1.6 98 1.7 101810 67
2003-04-09 06:24:27 51°13.635 2°55.944 1.7 77 1.7 101810 67
2003-04-09 06:24:32 51°13.639 2°55.932 1.4 73 1.7 101810 67
2003-04-09 06:24:36 51°13.641 2°55.923 2.1 119 1.7 101810 67
2003-04-09 06:24:42 51°13.646 2°55.91 3.2 78 1.7 101810 67
2003-04-09 06:24:47 51°13.649 2°55.899 3.3 66 1.7 101810 67
2003-04-09 06:24:52 51°13.653 2°55.888 3.6 73 1.7 101810 67
2003-04-09 06:24:56 51°13.656 2°55.879 2.2 103 1.7 101810 67
2003-04-09 06:25:02 51°13.66 2°55.866 1.9 112 1.7 101810 67
2003-04-09 06:25:06 51°13.663 2°55.857 2.2 109 1.7 101810 67
2003-04-09 06:25:12 51°13.668 2°55.845 2.5 113 1.7 101810 67
2003-04-09 06:25:16 51°13.67 2°55.836 1.9 69 1.7 101810 67
2003-04-09 06:25:22 51°13.674 2°55.824 1.7 60 1.7 101810 67
2003-04-09 06:25:27 51°13.677 2°55.813 2.4 102 1.7 101810 67
2003-04-09 06:25:32 51°13.68 2°55.803 2.5 100 1.7 101810 67
2003-04-09 06:25:36 51°13.683 2°55.795 3.3 93 1.6 101810 67
2003-04-09 06:25:42 51°13.686 2°55.784 3 66 1.6 101810 67
2003-04-09 06:25:46 51°13.688 2°55.777 2.3 65 1.6 101810 67
2003-04-09 06:25:51 51°13.691 2°55.769 2.8 51 1.6 101810 67
2003-04-09 06:25:54 51°13.692 2°55.765 2.3 71 1.6 101810 67
2003-04-09 06:26:00 51°13.694 2°55.759 1.9 28 1.6 101810 67
2003-04-09 06:26:06 51°13.695 2°55.754 2.1 12 1.6 101810 67
2003-04-09 06:26:10 51°13.695 2°55.752 3.3 16 1.6 101810 67
2003-04-09 06:26:14 51°13.696 2°55.75 3.5 358 1.6 101810 67
2003-04-09 06:26:20 51°13.696 2°55.748 5.1 346 1.6 101810 67
2003-04-09 06:26:25 51°13.697 2°55.748 4.3 349 1.6 101810 67
2003-04-09 06:26:31 51°13.698 2°55.748 4.2 14 1.6 101810 67
2003-04-09 06:26:35 51°13.698 2°55.749 3.2 332 1.6 101810 67
2003-04-09 06:26:40 51°13.699 2°55.751 4.8 345 1.6 101810 67
2003-04-09 06:26:46 51°13.701 2°55.754 3.9 334 1.6 101810 66
2003-04-09 06:26:51 51°13.702 2°55.755 4.5 320 1.6 101810 66
2003-04-09 06:26:56 51°13.703 2°55.757 2.6 293 1.6 101810 66
2003-04-09 06:27:00 51°13.703 2°55.757 2.9 310 1.6 101810 66
2003-04-09 06:27:06 51°13.704 2°55.757 2.1 294 1.6 101810 66
2003-04-09 06:27:11 51°13.704 2°55.756 2.9 307 1.6 101810 66
2003-04-09 06:27:16 51°13.704 2°55.754 3.2 318 1.6 101810 67
2003-04-09 06:27:20 51°13.704 2°55.753 2.4 289 1.6 101810 67
2003-04-09 06:27:26 51°13.704 2°55.75 1.8 287 1.6 101810 68
2003-04-09 06:27:31 51°13.704 2°55.748 1.7 282 1.6 101810 68
2003-04-09 06:27:36 51°13.702 2°55.745 2 252 1.6 101810 68
2003-04-09 06:27:42 51°13.7 2°55.743 1.8 266 1.6 101810 68
2003-04-09 06:27:46 51°13.699 2°55.741 2.6 275 1.6 101810 68
2003-04-09 06:27:51 51°13.698 2°55.739 2.2 301 1.6 101810 68
2003-04-09 06:27:56 51°13.696 2°55.737 2.5 296 1.6 101810 68
2003-04-09 06:28:00 51°13.695 2°55.736 2.5 289 1.6 101810 68
2003-04-09 06:28:06 51°13.695 2°55.736 3.2 277 1.6 101810 68
2003-04-09 06:28:11 51°13.696 2°55.735 3.4 291 1.6 101810 68
2003-04-09 06:28:15 51°13.697 2°55.735 3.7 277 1.6 101810 68
2003-04-09 06:28:20 51°13.698 2°55.735 3.9 266 1.6 101810 68
2003-04-09 06:28:26 51°13.698 2°55.734 3.9 279 1.6 101810 68
2003-04-09 06:28:31 51°13.701 2°55.734 3.3 272 1.6 101810 68
2003-04-09 06:28:36 51°13.704 2°55.733 3 259 1.6 101810 68
2003-04-09 06:28:42 51°13.704 2°55.731 3.1 272 1.6 101810 68
2003-04-09 06:28:46 51°13.703 2°55.729 4.3 268 1.5 101810 67
2003-04-09 06:28:50 51°13.702 2°55.727 4.7 257 1.5 101810 67
2003-04-09 06:28:55 51°13.7 2°55.724 4.1 249 1.5 101810 67
2003-04-09 06:29:00 51°13.703 2°55.721 3.5 253 1.5 101810 67
2003-04-09 06:29:06 51°13.709 2°55.718 3.1 256 1.5 101810 67
2003-04-09 06:29:10 51°13.714 2°55.716 3.2 274 1.5 101810 67
2003-04-09 06:29:16 51°13.721 2°55.711 3.7 266 1.5 101810 67
2003-04-09 06:29:20 51°13.726 2°55.708 3.6 268 1.5 101810 67
2003-04-09 06:29:26 51°13.733 2°55.702 2.8 275 1.5 101810 67
2003-04-09 06:29:31 51°13.739 2°55.697 2.4 302 1.5 101810 67
2003-04-09 06:29:36 51°13.746 2°55.692 3.3 307 1.5 101810 67
2003-04-09 06:29:40 51°13.751 2°55.687 4.6 280 1.5 101810 67
2003-04-09 06:29:45 51°13.758 2°55.68 4 281 1.5 101810 67
2003-04-09 06:29:50 51°13.765 2°55.674 3.9 283 1.5 101810 67
2003-04-09 06:30:00 51°13.783 2°55.662 4 285 1.5 101810 67
2003-04-09 06:30:15 51°13.81 2°55.643 3.3 279 1.5 101810 67
2003-04-09 06:30:26 51°13.827 2°55.627 4.1 330 1.4 101810 66
2003-04-09 06:30:29 51°13.833 2°55.623 5.3 327 1.4 101810 66
2003-04-09 06:30:35 51°13.845 2°55.614 5.4 305 1.4 101820 66
2003-04-09 06:30:39 51°13.852 2°55.609 4.8 287 1.4 101820 66
2003-04-09 06:30:45 51°13.861 2°55.602 3.9 297 1.4 101810 67
2003-04-09 06:30:53 51°13.876 2°55.59 4.3 290 1.4 101810 67
2003-04-09 06:30:57 51°13.881 2°55.583 4.3 284 1.4 101810 67
2003-04-09 06:31:03 51°13.888 2°55.576 3.8 304 1.4 101810 67
2003-04-09 06:31:08 51°13.898 2°55.57 3.7 289 1.4 101810 67
2003-04-09 06:31:13 51°13.906 2°55.563 4 308 1.4 101810 67
2003-04-09 06:31:18 51°13.915 2°55.556 4.2 292 1.4 101810 66
2003-04-09 06:31:23 51°13.924 2°55.549 5.6 277 1.4 101810 66
2003-04-09 06:31:28 51°13.935 2°55.543 5.1 281 1.4 101810 67
2003-04-09 06:31:32 51°13.944 2°55.538 4.8 276 1.4 101810 67
2003-04-09 06:31:38 51°13.957 2°55.53 4.2 287 1.4 101820 68
2003-04-09 06:31:43 51°13.968 2°55.523 4.1 286 1.4 101820 68
2003-04-09 06:31:48 51°13.978 2°55.517 5.3 295 1.4 101820 68
2003-04-09 06:31:52 51°13.986 2°55.512 5 285 1.4 101820 68
2003-04-09 06:31:56 51°13.994 2°55.506 4.1 277 1.4 101810 67
2003-04-09 06:32:02 51°14.005 2°55.498 3.1 290 1.4 101810 67
2003-04-09 06:32:08 51°14.017 2°55.49 3.8 294 1.4 101820 67
2003-04-09 06:32:13 51°14.026 2°55.484 3 282 1.4 101820 67
2003-04-09 06:32:18 51°14.034 2°55.477 4.2 297 1.4 101810 68
2003-04-09 06:32:23 51°14.042 2°55.47 3.6 303 1.4 101810 68
2003-04-09 06:32:27 51°14.049 2°55.465 3.6 312 1.4 101820 68
2003-04-09 06:32:32 51°14.058 2°55.458 6.2 297 1.4 101820 68
2003-04-09 06:32:38 51°14.068 2°55.45 5 289 1.4 101820 68
2003-04-09 06:32:42 51°14.076 2°55.445 4.7 277 1.4 101820 68
2003-04-09 06:32:48 51°14.088 2°55.437 5 293 1.4 101820 68
2003-04-09 06:32:52 51°14.096 2°55.432 4 299 1.4 101820 68
2003-04-09 06:32:58 51°14.108 2°55.424 4.6 291 1.4 101820 68
2003-04-09 06:33:03 51°14.118 2°55.417 3.6 282 1.4 101820 68
2003-04-09 06:33:08 51°14.128 2°55.41 4.2 271 1.4 101820 67
2003-04-09 06:33:12 51°14.136 2°55.404 2.9 275 1.4 101820 67
2003-04-09 06:33:16 51°14.144 2°55.398 4.2 293 1.5 101820 67
2003-04-09 06:33:23 51°14.158 2°55.387 4.5 286 1.5 101820 67
2003-04-09 06:33:28 51°14.168 2°55.378 5 277 1.4 101820 67
2003-04-09 06:33:32 51°14.176 2°55.371 3.5 286 1.4 101820 67
2003-04-09 06:33:38 51°14.187 2°55.359 4.2 263 1.4 101820 67
2003-04-09 06:33:43 51°14.197 2°55.349 4.3 271 1.4 101820 67
2003-04-09 06:33:48 51°14.206 2°55.338 3.7 291 1.4 101820 67
2003-04-09 06:33:52 51°14.214 2°55.329 5.3 276 1.4 101820 67
2003-04-09 06:33:58 51°14.225 2°55.314 4.1 276 1.5 101820 67
2003-04-09 06:34:03 51°14.235 2°55.302 4 285 1.5 101820 67
2003-04-09 06:34:08 51°14.244 2°55.289 4.4 271 1.5 101820 67
2003-04-09 06:34:12 51°14.251 2°55.278 3.7 289 1.5 101820 67
2003-04-09 06:34:18 51°14.261 2°55.261 3 285 1.4 101820 67
2003-04-09 06:34:22 51°14.268 2°55.25 3.7 292 1.4 101820 67
2003-04-09 06:34:28 51°14.277 2°55.231 3.1 271 1.4 101820 67
2003-04-09 06:34:33 51°14.285 2°55.215 4.4 243 1.4 101820 67
2003-04-09 06:34:38 51°14.293 2°55.199 4.4 260 1.5 101820 68
2003-04-09 06:34:43 51°14.3 2°55.183 4 276 1.5 101820 68
2003-04-09 06:34:47 51°14.305 2°55.17 3.7 258 1.5 101820 68
2003-04-09 06:34:52 51°14.312 2°55.154 3.1 282 1.5 101820 68
2003-04-09 06:34:56 51°14.318 2°55.141 2.6 280 1.5 101810 67
2003-04-09 06:35:03 51°14.327 2°55.118 3.4 264 1.5 101810 67
2003-04-09 06:35:08 51°14.334 2°55.101 3.8 260 1.5 101820 66
2003-04-09 06:35:12 51°14.339 2°55.087 3 321 1.5 101820 66
2003-04-09 06:35:18 51°14.346 2°55.067 2.9 291 1.5 101820 67
2003-04-09 06:35:23 51°14.353 2°55.05 3.6 280 1.5 101820 67
2003-04-09 06:35:27 51°14.359 2°55.037 5 252 1.5 101820 66
2003-04-09 06:35:32 51°14.366 2°55.02 2.4 279 1.5 101820 66
2003-04-09 06:35:38 51°14.375 2°55.001 2.8 293 1.5 101820 67
2003-04-09 06:35:43 51°14.382 2°54.984 5.1 258 1.5 101820 67
2003-04-09 06:35:48 51°14.391 2°54.968 6 242 1.5 101820 68
2003-04-09 06:35:52 51°14.397 2°54.954 6.2 246 1.5 101820 68
2003-04-09 06:35:58 51°14.406 2°54.935 5.7 241 1.6 101820 68
2003-04-09 06:36:03 51°14.413 2°54.918 4.4 243 1.6 101820 68
2003-04-09 06:36:07 51°14.419 2°54.905 4.6 253 1.6 101820 69
2003-04-09 06:36:12 51°14.427 2°54.888 3.7 243 1.6 101820 69
2003-04-09 06:36:18 51°14.438 2°54.87 4 247 1.6 101820 67
2003-04-09 06:36:23 51°14.447 2°54.854 4.3 259 1.6 101820 67
2003-04-09 06:36:28 51°14.455 2°54.838 4.1 262 1.6 101820 66
2003-04-09 06:36:33 51°14.464 2°54.823 6 274 1.6 101820 66
2003-04-09 06:36:38 51°14.473 2°54.809 6 267 1.6 101820 67
2003-04-09 06:36:43 51°14.482 2°54.795 6.8 267 1.6 101820 67
2003-04-09 06:36:47 51°14.491 2°54.786 7.2 259 1.6 101820 68
2003-04-09 06:36:52 51°14.504 2°54.776 7.2 265 1.6 101820 68
2003-04-09 06:36:58 51°14.518 2°54.764 7 263 1.7 101820 69
2003-04-09 06:37:03 51°14.529 2°54.755 7.1 275 1.7 101820 69
2003-04-09 06:37:06 51°14.537 2°54.75 7.4 277 1.7 101820 68
2003-04-09 06:37:12 51°14.55 2°54.74 5.9 279 1.7 101820 68
2003-04-09 06:37:18 51°14.564 2°54.731 6.3 277 1.7 101810 68
2003-04-09 06:37:22 51°14.573 2°54.725 8.5 277 1.7 101810 68
2003-04-09 06:37:27 51°14.585 2°54.718 7.3 279 1.7 101810 66
2003-04-09 06:37:32 51°14.597 2°54.712 7.6 280 1.7 101810 66
2003-04-09 06:37:38 51°14.612 2°54.705 7.2 281 1.7 101810 67
2003-04-09 06:37:43 51°14.624 2°54.7 7 281 1.7 101810 67
2003-04-09 06:37:47 51°14.634 2°54.696 9.5 278 1.7 101810 68
2003-04-09 06:37:52 51°14.646 2°54.692 7.6 277 1.7 101810 68
2003-04-09 06:37:58 51°14.661 2°54.688 7.9 287 1.8 101810 69
2003-04-09 06:38:03 51°14.673 2°54.685 6.8 284 1.8 101810 69
2003-04-09 06:38:08 51°14.686 2°54.683 8.2 279 1.8 101800 68
2003-04-09 06:38:12 51°14.696 2°54.681 8.3 280 1.8 101800 68
2003-04-09 06:38:18 51°14.712 2°54.677 10.3 277 1.8 101810 70
2003-04-09 06:38:23 51°14.724 2°54.674 9.7 277 1.8 101810 70
2003-04-09 06:38:27 51°14.734 2°54.672 7.9 279 1.9 101810 70
2003-04-09 06:38:32 51°14.747 2°54.669 9 275 1.9 101810 70
2003-04-09 06:38:38 51°14.761 2°54.665 6.8 279 1.8 101800 66
2003-04-09 06:38:42 51°14.771 2°54.662 7.7 284 1.8 101800 66
2003-04-09 06:38:48 51°14.786 2°54.658 8.2 282 1.8 101800 65
2003-04-09 06:38:53 51°14.798 2°54.654 8.6 280 1.8 101800 65
2003-04-09 06:38:58 51°14.81 2°54.65 8.6 280 1.8 101810 67
2003-04-09 06:39:03 51°14.822 2°54.647 9.4 274 1.8 101810 67
2003-04-09 06:39:08 51°14.834 2°54.644 8.8 279 1.8 101810 66
2003-04-09 06:39:12 51°14.844 2°54.642 7.8 280 1.8 101810 66
2003-04-09 06:39:18 51°14.857 2°54.64 9.2 269 1.9 101800 67
2003-04-09 06:39:23 51°14.867 2°54.639 9.3 279 1.9 101800 67
2003-04-09 06:39:27 51°14.875 2°54.638 8.6 281 1.9 101800 69
2003-04-09 06:39:32 51°14.884 2°54.637 10.1 279 1.9 101800 69
2003-04-09 06:39:38 51°14.895 2°54.637 9.4 277 1.9 101800 69
2003-04-09 06:39:43 51°14.903 2°54.637 10.4 275 1.9 101800 69
2003-04-09 06:39:48 51°14.911 2°54.638 7.8 275 1.9 101800 68
2003-04-09 06:39:52 51°14.917 2°54.638 10 277 1.9 101800 68
2003-04-09 06:39:58 51°14.927 2°54.639 9.7 277 2 101800 67
2003-04-09 06:40:02 51°14.933 2°54.641 9 279 2 101800 67
2003-04-09 06:40:08 51°14.942 2°54.643 8.7 277 2 101800 69
2003-04-09 06:40:13 51°14.949 2°54.645 9.2 293 2 101800 69
2003-04-09 06:40:18 51°14.956 2°54.646 8.3 287 2 101810 69
2003-04-09 06:40:23 51°14.963 2°54.648 8.6 288 2 101810 69
2003-04-09 06:40:28 51°14.97 2°54.65 8 284 2 101800 65
2003-04-09 06:40:32 51°14.975 2°54.651 7.4 288 2 101800 65
2003-04-09 06:40:38 51°14.982 2°54.652 8.5 281 2 101800 68
2003-04-09 06:40:42 51°14.987 2°54.654 10.2 277 2 101800 68
2003-04-09 06:40:48 51°14.993 2°54.656 9.6 280 2.1 101800 67
2003-04-09 06:40:52 51°14.997 2°54.658 8.6 279 2.1 101800 67
2003-04-09 06:40:58 51°15.003 2°54.66 9 280 2.1 101800 66
2003-04-09 06:41:03 51°15.007 2°54.662 8.7 277 2.1 101800 66
2003-04-09 06:41:08 51°15.011 2°54.665 8.8 290 2 101800 63
2003-04-09 06:41:12 51°15.015 2°54.666 9.4 282 2 101800 63
2003-04-09 06:41:18 51°15.02 2°54.669 7.3 281 2 101800 62
2003-04-09 06:41:22 51°15.024 2°54.67 8.2 279 2 101800 62
2003-04-09 06:41:27 51°15.028 2°54.672 6.7 284 2.1 101800 66
2003-04-09 06:41:32 51°15.033 2°54.674 8 283 2.1 101800 66
2003-04-09 06:41:38 51°15.039 2°54.676 8.5 282 2.1 101810 66
2003-04-09 06:41:43 51°15.044 2°54.678 8.5 280 2.1 101810 66
2003-04-09 06:41:47 51°15.047 2°54.679 9.5 272 2.1 101800 63
2003-04-09 06:41:52 51°15.052 2°54.68 7.6 283 2.1 101800 63
2003-04-09 06:41:58 51°15.057 2°54.682 7.8 290 2.1 101800 64
2003-04-09 06:42:03 51°15.061 2°54.683 10 275 2.1 101800 64
2003-04-09 06:42:08 51°15.066 2°54.684 10.1 277 2.1 101800 65
2003-04-09 06:42:12 51°15.069 2°54.685 8.3 287 2.1 101800 65
2003-04-09 06:42:18 51°15.073 2°54.687 8 288 2.1 101800 65
2003-04-09 06:42:22 51°15.076 2°54.688 8 289 2.1 101800 65
2003-04-09 06:42:27 51°15.08 2°54.69 8.1 282 2.2 101800 68
2003-04-09 06:42:32 51°15.084 2°54.692 7.7 284 2.2 101800 68
2003-04-09 06:42:38 51°15.089 2°54.693 8 281 2.1 101800 64
2003-04-09 06:42:42 51°15.093 2°54.694 9 279 2.1 101800 64
2003-04-09 06:42:48 51°15.099 2°54.696 7.8 285 2.2 101800 67
2003-04-09 06:42:53 51°15.104 2°54.698 8.5 281 2.2 101800 67
2003-04-09 06:42:58 51°15.11 2°54.701 8.3 290 2.2 101800 66
2003-04-09 06:43:03 51°15.116 2°54.704 10.4 293 2.2 101800 66
2003-04-09 06:43:08 51°15.123 2°54.708 9.9 301 2.2 101800 62
2003-04-09 06:43:12 51°15.13 2°54.712 12.3 307 2.2 101800 62
2003-04-09 06:43:18 51°15.141 2°54.719 11.6 308 2.2 101800 63
2003-04-09 06:43:23 51°15.151 2°54.726 12.2 319 2.2 101800 63
2003-04-09 06:43:28 51°15.161 2°54.736 12.3 315 2.2 101790 65
2003-04-09 06:43:32 51°15.17 2°54.744 11.2 318 2.2 101790 65
2003-04-09 06:43:38 51°15.183 2°54.758 13.4 321 2.2 101800 62
2003-04-09 06:43:42 51°15.192 2°54.768 12.9 317 2.2 101800 62
2003-04-09 06:43:48 51°15.206 2°54.785 13.2 325 2.1 101800 62
2003-04-09 06:43:52 51°15.217 2°54.796 14.2 319 2.1 101800 62
2003-04-09 06:43:58 51°15.233 2°54.816 14.3 324 2.2 101790 65
2003-04-09 06:44:03 51°15.246 2°54.835 15.1 324 2.2 101790 65
2003-04-09 06:44:08 51°15.259 2°54.855 14.2 329 2.2 101780 64
2003-04-09 06:44:12 51°15.268 2°54.872 15.8 329 2.2 101780 64
2003-04-09 06:44:18 51°15.282 2°54.898 14.9 330 2.2 101780 64
2003-04-09 06:44:22 51°15.292 2°54.916 14.6 332 2.2 101780 64
2003-04-09 06:44:27 51°15.304 2°54.939 13.5 336 2.2 101780 67
2003-04-09 06:44:33 51°15.318 2°54.965 15 330 2.2 101780 67
2003-04-09 06:44:38 51°15.33 2°54.988 15.2 332 2.2 101780 67
2003-04-09 06:44:43 51°15.342 2°55.01 14.8 330 2.2 101780 67
2003-04-09 06:44:48 51°15.355 2°55.032 15.3 337 2.2 101790 65
2003-04-09 06:44:52 51°15.365 2°55.05 14 336 2.2 101790 65
2003-04-09 06:44:58 51°15.38 2°55.078 15.2 337 2.2 101800 65
2003-04-09 06:45:03 51°15.392 2°55.102 13.7 340 2.2 101800 65
2003-04-09 06:45:08 51°15.405 2°55.126 14.5 336 2.2 101780 65
2003-04-09 06:45:12 51°15.415 2°55.146 15.4 334 2.2 101780 65
2003-04-09 06:45:18 51°15.429 2°55.174 15.6 331 2.2 101790 63
2003-04-09 06:45:23 51°15.442 2°55.197 15 335 2.2 101790 63
2003-04-09 06:45:28 51°15.455 2°55.221 14.8 330 2.3 101790 66
2003-04-09 06:45:32 51°15.465 2°55.239 15.3 336 2.3 101790 66
2003-04-09 06:45:38 51°15.48 2°55.268 14.8 335 2.3 101790 65
2003-04-09 06:45:42 51°15.491 2°55.287 14.9 335 2.3 101790 65
2003-04-09 06:45:48 51°15.506 2°55.317 14.8 336 2.3 101790 67
2003-04-09 06:45:53 51°15.518 2°55.341 16.1 335 2.3 101790 67
2003-04-09 06:45:58 51°15.531 2°55.365 16.5 334 2.3 101800 65
2003-04-09 06:46:03 51°15.543 2°55.39 15.4 333 2.3 101800 65
2003-04-09 06:46:07 51°15.553 2°55.409 14.3 335 2.3 101790 65
2003-04-09 06:46:12 51°15.566 2°55.432 16.2 332 2.3 101790 65
2003-04-09 06:46:18 51°15.582 2°55.459 16.5 334 2.3 101790 64
2003-04-09 06:46:23 51°15.595 2°55.484 15.3 337 2.3 101790 64
2003-04-09 06:46:28 51°15.608 2°55.508 15.8 332 2.3 101790 64
2003-04-09 06:46:32 51°15.618 2°55.527 14.6 333 2.3 101790 64
2003-04-09 06:46:38 51°15.634 2°55.556 15.5 332 2.3 101790 65
2003-04-09 06:46:43 51°15.646 2°55.58 16 333 2.3 101790 65
2003-04-09 06:46:48 51°15.659 2°55.604 16.5 333 2.3 101780 65
2003-04-09 06:46:52 51°15.669 2°55.624 14.7 337 2.3 101780 65
2003-04-09 06:46:58 51°15.683 2°55.653 13.9 338 2.3 101790 66
2003-04-09 06:47:02 51°15.692 2°55.672 15.9 337 2.3 101790 66
2003-04-09 06:47:07 51°15.705 2°55.697 15.8 335 2.3 101790 65
2003-04-09 06:47:12 51°15.718 2°55.722 15.7 332 2.3 101790 65
2003-04-09 06:47:18 51°15.733 2°55.751 14.6 331 2.3 101790 67
2003-04-09 06:47:23 51°15.746 2°55.775 14.6 339 2.3 101790 67
2003-04-09 06:47:28 51°15.757 2°55.8 15.2 340 2.3 101800 66
2003-04-09 06:47:33 51°15.77 2°55.823 16.1 339 2.3 101800 66
2003-04-09 06:47:38 51°15.783 2°55.846 15.7 336 2.3 101790 65
2003-04-09 06:47:42 51°15.794 2°55.865 15.4 333 2.3 101790 65
2003-04-09 06:47:48 51°15.81 2°55.894 14.5 341 2.3 101780 68
2003-04-09 06:47:52 51°15.82 2°55.914 17.4 340 2.3 101780 68
2003-04-09 06:47:58 51°15.837 2°55.944 15 338 2.4 101800 67
2003-04-09 06:48:03 51°15.85 2°55.969 14.7 337 2.4 101800 67
2003-04-09 06:48:08 51°15.864 2°55.992 15.6 337 2.4 101780 67
2003-04-09 06:48:12 51°15.874 2°56.012 16.1 336 2.4 101780 67
2003-04-09 06:48:18 51°15.888 2°56.042 15.4 333 2.4 101800 67
2003-04-09 06:48:23 51°15.902 2°56.065 15.5 339 2.4 101800 67
2003-04-09 06:48:28 51°15.915 2°56.089 16.4 339 2.4 101800 65
2003-04-09 06:48:33 51°15.927 2°56.113 15.8 338 2.4 101800 65
2003-04-09 06:48:38 51°15.94 2°56.138 15.8 340 2.4 101800 66
2003-04-09 06:48:43 51°15.952 2°56.163 15.2 340 2.4 101800 66
2003-04-09 06:48:47 51°15.963 2°56.183 15.4 339 2.4 101800 67
2003-04-09 06:48:52 51°15.976 2°56.207 15.4 341 2.4 101800 67
2003-04-09 06:48:58 51°15.991 2°56.237 16.2 340 2.4 101790 67
2003-04-09 06:49:03 51°16.003 2°56.262 16 338 2.4 101790 67
2003-04-09 06:49:08 51°16.016 2°56.288 16.2 339 2.4 101780 66
2003-04-09 06:49:13 51°16.028 2°56.313 15.4 340 2.4 101780 66
2003-04-09 06:49:18 51°16.04 2°56.339 16 339 2.4 101790 67
2003-04-09 06:49:23 51°16.053 2°56.364 16 337 2.4 101790 67
2003-04-09 06:49:28 51°16.066 2°56.389 16.5 338 2.4 101790 66
2003-04-09 06:49:32 51°16.076 2°56.409 16.1 336 2.4 101790 66
2003-04-09 06:49:38 51°16.091 2°56.44 15.1 337 2.4 101780 66
2003-04-09 06:49:43 51°16.103 2°56.465 15.3 337 2.4 101780 66
2003-04-09 06:49:48 51°16.116 2°56.49 15.9 341 2.4 101790 66
2003-04-09 06:49:52 51°16.126 2°56.509 15.5 338 2.4 101790 66
2003-04-09 06:49:56 51°16.135 2°56.529 16 338 2.4 101800 66
2003-04-09 06:50:03 51°16.152 2°56.565 16.8 337 2.4 101800 66
2003-04-09 06:50:08 51°16.165 2°56.589 15.4 339 2.4 101800 68
2003-04-09 06:50:12 51°16.175 2°56.61 15.7 336 2.4 101800 68
2003-04-09 06:50:18 51°16.19 2°56.639 15.8 337 2.4 101790 66
2003-04-09 06:50:22 51°16.2 2°56.659 15 337 2.4 101790 66
2003-04-09 06:50:28 51°16.215 2°56.689 16.2 336 2.4 101790 67
2003-04-09 06:50:32 51°16.224 2°56.709 16.7 335 2.4 101790 67
2003-04-09 06:50:38 51°16.239 2°56.739 16.4 336 2.4 101790 66
2003-04-09 06:50:43 51°16.25 2°56.763 16 335 2.4 101790 66
2003-04-09 06:50:48 51°16.262 2°56.788 16.3 335 2.4 101790 67
2003-04-09 06:50:52 51°16.272 2°56.808 15.6 329 2.4 101790 67
2003-04-09 06:50:58 51°16.287 2°56.838 15.7 332 2.4 101780 67
2003-04-09 06:51:03 51°16.299 2°56.863 16.4 338 2.4 101780 67
2003-04-09 06:51:07 51°16.309 2°56.883 16.1 338 2.4 101790 69
2003-04-09 06:51:12 51°16.321 2°56.907 16.4 340 2.4 101790 69
2003-04-09 06:51:18 51°16.335 2°56.937 15.5 339 2.4 101800 68
2003-04-09 06:51:22 51°16.345 2°56.957 16.6 331 2.4 101800 68
2003-04-09 06:51:28 51°16.359 2°56.986 16 334 2.4 101790 68
2003-04-09 06:51:32 51°16.369 2°57.005 13.6 339 2.4 101790 68
2003-04-09 06:51:38 51°16.382 2°57.035 15.6 334 2.4 101790 68
2003-04-09 06:51:43 51°16.394 2°57.059 17 338 2.4 101790 68
2003-04-09 06:51:47 51°16.403 2°57.078 16.2 341 2.4 101780 66
2003-04-09 06:51:52 51°16.416 2°57.102 16.3 332 2.4 101780 66
2003-04-09 06:51:58 51°16.43 2°57.132 16.2 334 2.4 101790 67
2003-04-09 06:52:03 51°16.443 2°57.157 16.1 343 2.4 101790 67
2003-04-09 06:52:08 51°16.455 2°57.181 16.3 340 2.4 101790 67
2003-04-09 06:52:12 51°16.465 2°57.201 16.7 340 2.4 101790 67
2003-04-09 06:52:18 51°16.479 2°57.23 16 341 2.4 101780 66
2003-04-09 06:52:22 51°16.489 2°57.249 16.8 341 2.4 101780 66
2003-04-09 06:52:28 51°16.504 2°57.279 16.5 337 2.4 101790 67
2003-04-09 06:52:32 51°16.514 2°57.299 16.1 333 2.4 101790 67
2003-04-09 06:52:38 51°16.528 2°57.328 16.3 336 2.4 101790 65
2003-04-09 06:52:43 51°16.539 2°57.352 16.4 336 2.4 101790 65
2003-04-09 06:52:48 51°16.551 2°57.377 16.2 330 2.4 101790 64
2003-04-09 06:52:52 51°16.561 2°57.396 15.5 333 2.4 101790 64
2003-04-09 06:52:58 51°16.575 2°57.425 15.2 332 2.3 101790 65
2003-04-09 06:53:03 51°16.587 2°57.449 15.3 330 2.3 101790 65
2003-04-09 06:53:08 51°16.598 2°57.473 14.2 335 2.3 101780 64
2003-04-09 06:53:12 51°16.608 2°57.493 15.9 336 2.3 101780 64
2003-04-09 06:53:18 51°16.622 2°57.522 14.7 337 2.3 101790 63
2003-04-09 06:53:23 51°16.632 2°57.545 15.3 337 2.3 101790 63
2003-04-09 06:53:26 51°16.64 2°57.56 16.4 344 2.3 101790 66
2003-04-09 06:53:32 51°16.656 2°57.591 16.7 339 2.3 101790 66
2003-04-09 06:53:38 51°16.67 2°57.619 16.1 338 2.4 101800 69
2003-04-09 06:53:42 51°16.679 2°57.638 16.2 339 2.4 101800 69
2003-04-09 06:53:48 51°16.694 2°57.667 15.9 337 2.4 101800 68
2003-04-09 06:53:53 51°16.705 2°57.691 15.3 338 2.4 101800 68
2003-04-09 06:53:58 51°16.716 2°57.715 16.4 337 2.4 101790 67
2003-04-09 06:54:03 51°16.728 2°57.74 15.9 341 2.4 101790 67
2003-04-09 06:54:08 51°16.74 2°57.765 16.4 338 2.4 101790 67
2003-04-09 06:54:13 51°16.751 2°57.791 15.2 336 2.4 101790 67
2003-04-09 06:54:18 51°16.763 2°57.817 15.7 336 2.4 101790 67
2003-04-09 06:54:23 51°16.775 2°57.843 15 337 2.4 101790 67
2003-04-09 06:54:28 51°16.787 2°57.869 15.1 336 2.4 101780 66
2003-04-09 06:54:32 51°16.796 2°57.889 14 341 2.4 101780 66
2003-04-09 06:54:38 51°16.81 2°57.92 15.3 345 2.4 101790 64
2003-04-09 06:54:42 51°16.82 2°57.94 15.7 336 2.4 101790 64
2003-04-09 06:54:47 51°16.832 2°57.966 15.1 337 2.4 101800 65
2003-04-09 06:54:52 51°16.843 2°57.992 15.4 337 2.4 101800 65
2003-04-09 06:54:58 51°16.857 2°58.022 15.3 337 2.4 101790 67
2003-04-09 06:55:03 51°16.868 2°58.048 15.3 341 2.4 101790 67
2003-04-09 06:55:08 51°16.88 2°58.073 15.7 336 2.4 101790 66
2003-04-09 06:55:12 51°16.888 2°58.094 14.9 336 2.4 101790 66
2003-04-09 06:55:18 51°16.902 2°58.124 14.3 334 2.4 101790 65
2003-04-09 06:55:23 51°16.914 2°58.149 16.8 339 2.4 101790 65
2003-04-09 06:55:28 51°16.926 2°58.174 15.5 339 2.4 101790 64
2003-04-09 06:55:33 51°16.938 2°58.199 16.4 337 2.4 101790 64
2003-04-09 06:55:38 51°16.949 2°58.225 16.8 340 2.4 101790 65
2003-04-09 06:55:43 51°16.961 2°58.25 15.9 340 2.4 101790 65
2003-04-09 06:55:48 51°16.973 2°58.276 14.9 336 2.4 101790 65
2003-04-09 06:55:52 51°16.982 2°58.296 15.7 340 2.4 101790 65
2003-04-09 06:55:58 51°16.995 2°58.326 15.1 341 2.5 101790 63
2003-04-09 06:56:03 51°17.007 2°58.352 15.2 335 2.5 101790 63
2003-04-09 06:56:08 51°17.017 2°58.378 15.5 338 2.4 101790 61
2003-04-09 06:56:12 51°17.026 2°58.399 13.9 346 2.4 101790 61
2003-04-09 06:56:18 51°17.04 2°58.431 14.6 339 2.4 101800 61
2003-04-09 06:56:22 51°17.049 2°58.451 16.7 344 2.4 101800 61
2003-04-09 06:56:28 51°17.062 2°58.482 15.6 341 2.4 101800 62
2003-04-09 06:56:32 51°17.07 2°58.503 16.6 341 2.4 101800 62
2003-04-09 06:56:38 51°17.083 2°58.534 14.9 339 2.5 101800 64
2003-04-09 06:56:42 51°17.092 2°58.555 15.7 336 2.5 101800 64
2003-04-09 06:56:48 51°17.104 2°58.587 15.7 341 2.5 101790 62
2003-04-09 06:56:52 51°17.113 2°58.607 15 335 2.5 101790 62
2003-04-09 06:56:58 51°17.126 2°58.639 15.4 337 2.5 101790 62
2003-04-09 06:57:03 51°17.137 2°58.664 16.5 338 2.5 101790 62
2003-04-09 06:57:08 51°17.147 2°58.69 16.9 333 2.5 101800 62
2003-04-09 06:57:12 51°17.156 2°58.711 15.7 333 2.5 101800 62
2003-04-09 06:57:18 51°17.169 2°58.742 15.4 336 2.5 101810 64
2003-04-09 06:57:23 51°17.18 2°58.768 13.8 341 2.5 101810 64
2003-04-09 06:57:28 51°17.191 2°58.794 14.7 337 2.5 101790 60
2003-04-09 06:57:32 51°17.2 2°58.815 15.2 341 2.5 101790 60
2003-04-09 06:57:38 51°17.213 2°58.846 15 340 2.5 101790 59
2003-04-09 06:57:42 51°17.221 2°58.868 15.5 340 2.5 101790 59
2003-04-09 06:57:48 51°17.235 2°58.898 16.4 340 2.5 101790 61
2003-04-09 06:57:53 51°17.246 2°58.924 16.4 339 2.5 101790 61
2003-04-09 06:57:58 51°17.256 2°58.95 16.2 341 2.5 101800 60
2003-04-09 06:58:03 51°17.267 2°58.976 16.2 337 2.5 101800 60
2003-04-09 06:58:08 51°17.278 2°59.002 14.8 335 2.5 101810 60
2003-04-09 06:58:12 51°17.286 2°59.023 15.5 334 2.5 101810 60
2003-04-09 06:58:18 51°17.299 2°59.054 15.6 334 2.5 101800 59
2003-04-09 06:58:23 51°17.31 2°59.08 15.1 334 2.5 101800 59
2003-04-09 06:58:28 51°17.322 2°59.106 14.4 337 2.5 101800 57
2003-04-09 06:58:32 51°17.331 2°59.127 15.5 337 2.5 101800 57
2003-04-09 06:58:38 51°17.344 2°59.159 15.4 342 2.5 101800 59
2003-04-09 06:58:42 51°17.352 2°59.18 15.1 342 2.5 101800 59
2003-04-09 06:58:46 51°17.361 2°59.2 16.1 339 2.5 101790 59
2003-04-09 06:58:52 51°17.374 2°59.231 15.5 335 2.5 101790 59
2003-04-09 06:58:58 51°17.387 2°59.262 15.8 338 2.6 101800 60
2003-04-09 06:59:03 51°17.398 2°59.288 15.4 337 2.6 101800 60
2003-04-09 06:59:08 51°17.41 2°59.314 16.1 339 2.6 101800 60
2003-04-09 06:59:12 51°17.418 2°59.335 16.9 341 2.6 101800 60
2003-04-09 06:59:18 51°17.431 2°59.366 15.5 340 2.6 101810 58
2003-04-09 06:59:22 51°17.44 2°59.387 15.5 340 2.6 101810 58
2003-04-09 06:59:27 51°17.451 2°59.414 15.6 341 2.6 101800 59
2003-04-09 06:59:32 51°17.461 2°59.44 15.8 338 2.6 101800 59
2003-04-09 06:59:38 51°17.475 2°59.471 16.4 334 2.6 101810 59
2003-04-09 06:59:43 51°17.486 2°59.497 15 343 2.6 101810 59
2003-04-09 06:59:47 51°17.494 2°59.518 15.8 338 2.6 101800 56
2003-04-09 06:59:52 51°17.504 2°59.545 15 338 2.6 101800 56
2003-04-09 06:59:58 51°17.517 2°59.577 15.6 340 2.5 101800 56
2003-04-09 07:00:03 51°17.528 2°59.604 14.9 343 2.5 101800 56
2003-04-09 07:00:08 51°17.539 2°59.631 17.1 340 2.6 101810 58
2003-04-09 07:00:12 51°17.546 2°59.652 16.8 342 2.6 101810 58
2003-04-09 07:00:18 51°17.559 2°59.684 16.2 339 2.6 101800 59
2003-04-09 07:00:22 51°17.567 2°59.706 16.3 340 2.6 101800 59
2003-04-09 07:00:26 51°17.575 2°59.727 15.1 337 2.6 101810 61
2003-04-09 07:00:32 51°17.587 2°59.76 16 336 2.6 101810 61
2003-04-09 07:00:38 51°17.599 2°59.792 16 343 2.6 101800 57
2003-04-09 07:00:43 51°17.609 2°59.819 16.6 341 2.6 101800 57
2003-04-09 07:00:48 51°17.62 2°59.846 15.7 340 2.6 101800 56
2003-04-09 07:00:52 51°17.628 2°59.867 15.2 338 2.6 101800 56
2003-04-09 07:00:58 51°17.64 2°59.898 15.6 346 2.5 101810 56
2003-04-09 07:01:03 51°17.65 2°59.925 16 343 2.5 101810 56
2003-04-09 07:01:08 51°17.661 2°59.952 15.7 340 2.6 101810 56
2003-04-09 07:01:12 51°17.669 2°59.973 15.2 341 2.6 101810 56
2003-04-09 07:01:18 51°17.68 3°0.005 15.6 339 2.6 101810 57
2003-04-09 07:01:23 51°17.69 3°0.033 15.1 343 2.6 101810 57
2003-04-09 07:01:28 51°17.7 3°0.06 15.3 339 2.6 101810 56
2003-04-09 07:01:32 51°17.707 3°0.082 15.7 345 2.6 101810 56
2003-04-09 07:01:38 51°17.717 3°0.116 15.3 348 2.6 101810 56
2003-04-09 07:01:42 51°17.724 3°0.139 14.1 343 2.6 101810 56
2003-04-09 07:01:47 51°17.732 3°0.168 16.2 338 2.6 101810 57
2003-04-09 07:01:53 51°17.742 3°0.202 16.3 343 2.6 101810 57
2003-04-09 07:01:58 51°17.749 3°0.231 16.1 343 2.6 101800 57
2003-04-09 07:02:03 51°17.757 3°0.26 16.1 344 2.6 101800 57
2003-04-09 07:02:08 51°17.765 3°0.289 14.8 338 2.6 101820 59
2003-04-09 07:02:12 51°17.771 3°0.312 14.8 343 2.6 101820 59
2003-04-09 07:02:18 51°17.78 3°0.347 16.5 344 2.6 101800 55
2003-04-09 07:02:23 51°17.787 3°0.375 15.6 344 2.6 101800 55
2003-04-09 07:02:28 51°17.795 3°0.404 15.5 344 2.6 101820 55
2003-04-09 07:02:32 51°17.801 3°0.427 15.1 340 2.6 101820 55
2003-04-09 07:02:38 51°17.81 3°0.462 15.9 341 2.6 101820 55
2003-04-09 07:02:43 51°17.818 3°0.491 16.5 338 2.6 101820 55
2003-04-09 07:02:48 51°17.826 3°0.52 16.1 340 2.6 101810 55
2003-04-09 07:02:52 51°17.832 3°0.543 15.4 342 2.6 101810 55
2003-04-09 07:02:58 51°17.842 3°0.578 15.5 344 2.6 101800 55
2003-04-09 07:03:03 51°17.85 3°0.606 15.3 337 2.6 101800 55
2003-04-09 07:03:08 51°17.859 3°0.635 14.4 341 2.6 101800 56
2003-04-09 07:03:12 51°17.866 3°0.657 15.4 344 2.6 101800 56
2003-04-09 07:03:18 51°17.877 3°0.692 15.2 343 2.6 101810 55
2003-04-09 07:03:22 51°17.884 3°0.715 14.7 345 2.6 101810 55
2003-04-09 07:03:27 51°17.893 3°0.743 15.7 343 2.6 101810 58
2003-04-09 07:03:32 51°17.902 3°0.772 16.2 342 2.6 101810 58
2003-04-09 07:03:36 51°17.909 3°0.795 16.5 338 2.6 101800 59
2003-04-09 07:03:43 51°17.922 3°0.834 14.6 339 2.6 101800 59
2003-04-09 07:03:48 51°17.931 3°0.862 14.5 339 2.6 101810 57
2003-04-09 07:03:52 51°17.938 3°0.885 13.9 337 2.6 101810 57
2003-04-09 07:03:58 51°17.949 3°0.919 14.6 343 2.6 101810 56
2003-04-09 07:04:03 51°17.957 3°0.947 14.2 339 2.6 101810 56
2003-04-09 07:04:08 51°17.966 3°0.975 14.3 342 2.6 101810 54
2003-04-09 07:04:12 51°17.972 3°0.998 16.3 342 2.6 101810 54
2003-04-09 07:04:18 51°17.982 3°1.032 15.6 345 2.6 101820 55
2003-04-09 07:04:23 51°17.991 3°1.06 15.5 345 2.6 101820 55
2003-04-09 07:04:28 51°17.999 3°1.088 14.8 342 2.7 101820 58
2003-04-09 07:04:33 51°18.008 3°1.116 15.6 339 2.7 101820 58
2003-04-09 07:04:38 51°18.016 3°1.145 14.5 337 2.7 101820 56
2003-04-09 07:04:43 51°18.024 3°1.173 14.9 340 2.7 101820 56
2003-04-09 07:04:48 51°18.033 3°1.201 15.1 337 2.7 101810 55
2003-04-09 07:04:52 51°18.04 3°1.224 14.8 338 2.7 101810 55
2003-04-09 07:04:58 51°18.051 3°1.258 13.9 335 2.7 101810 56
2003-04-09 07:05:02 51°18.058 3°1.28 15.9 337 2.7 101810 56
2003-04-09 07:05:07 51°18.067 3°1.308 14.8 348 2.7 101820 53
2003-04-09 07:05:13 51°18.078 3°1.342 15.5 342 2.7 101820 53
2003-04-09 07:05:18 51°18.088 3°1.369 14.5 341 2.6 101820 52
2003-04-09 07:05:22 51°18.095 3°1.392 14.8 340 2.6 101820 52
2003-04-09 07:05:28 51°18.106 3°1.425 14.6 339 2.7 101810 53
2003-04-09 07:05:32 51°18.114 3°1.447 15.4 338 2.7 101810 53
2003-04-09 07:05:36 51°18.121 3°1.469 14.6 342 2.7 101820 57
2003-04-09 07:05:43 51°18.134 3°1.508 15.6 340 2.7 101820 57
2003-04-09 07:05:48 51°18.144 3°1.536 14.6 335 2.7 101820 56
2003-04-09 07:05:53 51°18.153 3°1.563 14.5 343 2.7 101820 56
2003-04-09 07:05:58 51°18.163 3°1.59 15.8 337 2.7 101820 55
2003-04-09 07:06:03 51°18.173 3°1.618 15.6 335 2.7 101820 55
2003-04-09 07:06:08 51°18.182 3°1.645 15.5 335 2.7 101810 54
2003-04-09 07:06:12 51°18.19 3°1.667 15.4 339 2.7 101810 54
2003-04-09 07:06:18 51°18.201 3°1.7 15 338 2.7 101810 53
2003-04-09 07:06:23 51°18.211 3°1.728 14.5 340 2.7 101810 53
2003-04-09 07:06:28 51°18.22 3°1.755 14.8 341 2.7 101800 53
2003-04-09 07:06:32 51°18.228 3°1.777 15 344 2.7 101800 53
2003-04-09 07:06:38 51°18.24 3°1.811 15.9 342 2.7 101820 54
2003-04-09 07:06:43 51°18.249 3°1.838 14.8 338 2.7 101820 54
2003-04-09 07:06:48 51°18.259 3°1.866 15.6 335 2.7 101810 53
2003-04-09 07:06:52 51°18.266 3°1.887 15 332 2.7 101810 53
2003-04-09 07:06:58 51°18.278 3°1.92 15.4 332 2.7 101810 53
2003-04-09 07:07:03 51°18.287 3°1.947 15.4 332 2.7 101810 53
2003-04-09 07:07:08 51°18.297 3°1.974 14.9 336 2.7 101810 53
2003-04-09 07:07:13 51°18.306 3°2.002 15.9 336 2.7 101810 53
2003-04-09 07:07:18 51°18.316 3°2.029 14.2 344 2.7 101820 55
2003-04-09 07:07:22 51°18.323 3°2.05 15.5 342 2.7 101820 55
2003-04-09 07:07:28 51°18.334 3°2.084 15.4 341 2.7 101820 55
2003-04-09 07:07:32 51°18.342 3°2.106 14.5 341 2.7 101820 55
2003-04-09 07:07:38 51°18.354 3°2.139 14.5 337 2.8 101820 56
2003-04-09 07:07:42 51°18.361 3°2.161 15.1 338 2.8 101820 56
2003-04-09 07:07:48 51°18.372 3°2.194 14.9 334 2.7 101820 55
2003-04-09 07:07:52 51°18.38 3°2.215 15 337 2.7 101820 55
2003-04-09 07:07:58 51°18.391 3°2.249 15.4 343 2.8 101820 55
2003-04-09 07:08:03 51°18.401 3°2.277 15.4 337 2.8 101820 55
2003-04-09 07:08:08 51°18.41 3°2.305 15 340 2.8 101820 55
2003-04-09 07:08:13 51°18.419 3°2.332 14.7 337 2.8 101820 55
2003-04-09 07:08:18 51°18.429 3°2.359 14.6 340 2.8 101820 55
2003-04-09 07:08:23 51°18.438 3°2.387 14.8 332 2.8 101820 55
2003-04-09 07:08:28 51°18.447 3°2.414 14.7 332 2.7 101800 52
2003-04-09 07:08:32 51°18.455 3°2.436 14.6 341 2.7 101800 52
2003-04-09 07:08:38 51°18.466 3°2.469 14.3 341 2.8 101810 53
2003-04-09 07:08:43 51°18.475 3°2.496 15 340 2.8 101810 53
2003-04-09 07:08:48 51°18.484 3°2.523 15.1 344 2.8 101810 53
2003-04-09 07:08:52 51°18.492 3°2.546 15.7 344 2.8 101810 53
2003-04-09 07:08:58 51°18.503 3°2.579 15.7 344 2.8 101810 53
2003-04-09 07:09:03 51°18.512 3°2.606 14.8 338 2.8 101810 53
2003-04-09 07:09:08 51°18.521 3°2.634 14.7 340 2.8 101820 51
2003-04-09 07:09:12 51°18.528 3°2.656 15.9 334 2.8 101820 51
2003-04-09 07:09:18 51°18.54 3°2.689 16 338 2.7 101820 52
2003-04-09 07:09:22 51°18.547 3°2.711 15.8 336 2.7 101820 52
2003-04-09 07:09:28 51°18.558 3°2.745 15.1 335 2.7 101820 51
2003-04-09 07:09:32 51°18.564 3°2.767 15.9 333 2.7 101820 51
2003-04-09 07:09:38 51°18.575 3°2.801 15.2 334 2.8 101820 51
2003-04-09 07:09:42 51°18.581 3°2.823 15.4 335 2.8 101820 51
2003-04-09 07:09:48 51°18.591 3°2.857 15.6 336 2.8 101800 52
2003-04-09 07:09:52 51°18.597 3°2.879 15.5 338 2.8 101800 52
2003-04-09 07:09:58 51°18.607 3°2.913 15.8 338 2.7 101810 51
2003-04-09 07:10:03 51°18.615 3°2.94 15.5 336 2.7 101810 51
2003-04-09 07:10:08 51°18.623 3°2.969 14.9 338 2.7 101810 51
2003-04-09 07:10:13 51°18.631 3°2.997 14.8 341 2.7 101810 51
2003-04-09 07:10:18 51°18.638 3°3.025 13.9 346 2.7 101810 51
2003-04-09 07:10:22 51°18.645 3°3.048 15.6 337 2.7 101810 51
2003-04-09 07:10:28 51°18.654 3°3.082 15.2 343 2.7 101810 51
2003-04-09 07:10:32 51°18.66 3°3.104 14.7 344 2.7 101810 51
2003-04-09 07:10:38 51°18.669 3°3.138 15.7 343 2.8 101820 55
2003-04-09 07:10:43 51°18.677 3°3.167 15.3 341 2.8 101820 55
2003-04-09 07:10:48 51°18.685 3°3.195 14.8 342 2.7 101810 51
2003-04-09 07:10:52 51°18.691 3°3.217 14.8 339 2.7 101810 51
2003-04-09 07:10:58 51°18.701 3°3.251 15.2 336 2.7 101810 50
2003-04-09 07:11:03 51°18.709 3°3.279 14.5 340 2.7 101810 50
2003-04-09 07:11:08 51°18.717 3°3.308 14.1 346 2.7 101810 51
2003-04-09 07:11:13 51°18.725 3°3.336 16.4 346 2.7 101810 51
2003-04-09 07:11:18 51°18.733 3°3.364 15 343 2.7 101820 51
2003-04-09 07:11:22 51°18.739 3°3.387 14.5 344 2.7 101820 51
2003-04-09 07:11:28 51°18.749 3°3.419 13.7 345 2.8 101810 51
2003-04-09 07:11:32 51°18.754 3°3.439 14.7 342 2.8 101810 51
2003-04-09 07:11:38 51°18.762 3°3.469 13.3 338 2.7 101810 48
2003-04-09 07:11:42 51°18.767 3°3.488 13.9 336 2.7 101810 48
2003-04-09 07:11:48 51°18.774 3°3.515 12.4 342 2.7 101800 49
2003-04-09 07:11:52 51°18.778 3°3.532 11.6 346 2.7 101800 49
2003-04-09 07:11:58 51°18.782 3°3.556 12.9 347 2.8 101810 53
2003-04-09 07:12:03 51°18.785 3°3.575 13.1 349 2.8 101810 53
2003-04-09 07:12:08 51°18.788 3°3.592 12.3 352 2.8 101810 51
2003-04-09 07:12:13 51°18.789 3°3.609 12.2 353 2.8 101810 51
2003-04-09 07:12:18 51°18.79 3°3.624 11.2 348 2.8 101820 52
2003-04-09 07:12:23 51°18.79 3°3.639 11.6 356 2.8 101820 52
2003-04-09 07:12:28 51°18.789 3°3.653 10.3 359 2.8 101810 51
2003-04-09 07:12:32 51°18.789 3°3.664 11 2 2.8 101810 51
2003-04-09 07:12:38 51°18.787 3°3.679 11.8 6 2.8 101810 50
2003-04-09 07:12:43 51°18.785 3°3.691 10.3 9 2.8 101810 50
2003-04-09 07:12:48 51°18.784 3°3.701 10.6 10 2.7 101810 48
2003-04-09 07:12:52 51°18.783 3°3.71 10.3 9 2.7 101810 48
2003-04-09 07:12:58 51°18.781 3°3.722 8.9 13 2.7 101810 47
2003-04-09 07:13:03 51°18.779 3°3.731 8.8 13 2.7 101810 47
2003-04-09 07:13:08 51°18.777 3°3.74 7.7 9 2.7 101810 47
2003-04-09 07:13:12 51°18.774 3°3.746 7.8 14 2.7 101810 47
2003-04-09 07:13:18 51°18.771 3°3.754 7.6 12 2.7 101800 46
2003-04-09 07:13:22 51°18.769 3°3.76 7.5 18 2.7 101800 46
2003-04-09 07:13:28 51°18.766 3°3.767 7.9 22 2.7 101800 46
2003-04-09 07:13:32 51°18.764 3°3.771 7.8 19 2.7 101800 46
2003-04-09 07:13:38 51°18.761 3°3.778 7.7 21 2.7 101810 47
2003-04-09 07:13:42 51°18.759 3°3.782 8.4 20 2.7 101810 47
2003-04-09 07:13:48 51°18.756 3°3.788 7.9 20 2.7 101810 49
2003-04-09 07:13:52 51°18.754 3°3.791 7.8 21 2.7 101810 49
2003-04-09 07:13:58 51°18.751 3°3.796 9.2 23 2.7 101810 50
2003-04-09 07:14:03 51°18.749 3°3.8 7.1 39 2.7 101810 50
2003-04-09 07:14:08 51°18.747 3°3.803 7.5 40 2.7 101810 51
2003-04-09 07:14:12 51°18.745 3°3.805 8 47 2.7 101810 51
2003-04-09 07:14:18 51°18.743 3°3.807 9.3 49 2.7 101810 49
2003-04-09 07:14:23 51°18.741 3°3.809 7.8 132 2.7 101810 49
2003-04-09 07:14:28 51°18.739 3°3.811 7.6 47 2.7 101810 50
2003-04-09 07:14:32 51°18.738 3°3.812 8.3 52 2.7 101810 50
2003-04-09 07:14:38 51°18.736 3°3.813 8.6 56 2.7 101810 50
2003-04-09 07:14:43 51°18.735 3°3.814 9 52 2.7 101810 50
2003-04-09 07:14:48 51°18.735 3°3.814 8.7 63 2.8 101800 51
2003-04-09 07:14:52 51°18.735 3°3.814 7.9 58 2.8 101800 51
2003-04-09 07:14:58 51°18.735 3°3.814 8.3 58 2.8 101810 50
2003-04-09 07:15:02 51°18.735 3°3.813 8.6 60 2.8 101810 50
2003-04-09 07:15:08 51°18.735 3°3.812 7.7 58 2.8 101800 48
2003-04-09 07:15:12 51°18.736 3°3.811 8.1 66 2.8 101800 48
2003-04-09 07:15:18 51°18.738 3°3.81 7.5 64 2.8 101800 49
2003-04-09 07:15:23 51°18.739 3°3.809 7.4 71 2.8 101800 49
2003-04-09 07:15:28 51°18.74 3°3.808 7.9 69 2.8 101800 52
2003-04-09 07:15:32 51°18.741 3°3.807 8.2 75 2.8 101800 52
2003-04-09 07:15:38 51°18.743 3°3.806 8.6 83 2.8 101810 50
2003-04-09 07:15:43 51°18.744 3°3.804 7.7 83 2.8 101810 50
2003-04-09 07:15:48 51°18.745 3°3.804 8.5 83 2.8 101800 49
2003-04-09 07:15:53 51°18.745 3°3.803 9.5 83 2.8 101800 49
2003-04-09 07:15:58 51°18.746 3°3.802 8.8 83 2.8 101800 52
2003-04-09 07:16:02 51°18.747 3°3.802 8.3 76 2.8 101800 52
2003-04-09 07:16:08 51°18.748 3°3.801 6.9 81 2.8 101810 52
2003-04-09 07:16:12 51°18.749 3°3.801 8.3 91 2.8 101810 52
2003-04-09 07:16:18 51°18.749 3°3.8 9.4 90 2.8 101810 51
2003-04-09 07:16:23 51°18.75 3°3.799 8.3 89 2.8 101810 51
2003-04-09 07:16:28 51°18.75 3°3.798 7.8 92 2.8 101810 53
2003-04-09 07:16:33 51°18.75 3°3.797 8.4 97 2.8 101810 53
2003-04-09 07:16:36 51°18.751 3°3.796 7.8 82 2.8 101810 51
2003-04-09 07:16:43 51°18.751 3°3.795 7.3 84 2.8 101810 51
2003-04-09 07:16:48 51°18.751 3°3.794 7.4 77 2.8 101810 49
2003-04-09 07:16:53 51°18.752 3°3.793 7.1 82 2.8 101810 49
2003-04-09 07:16:58 51°18.752 3°3.792 6.8 89 2.8 101810 53
2003-04-09 07:17:03 51°18.752 3°3.792 8.7 87 2.8 101810 53
2003-04-09 07:17:08 51°18.752 3°3.791 9.3 88 2.9 101810 53
2003-04-09 07:17:12 51°18.753 3°3.79 9.2 92 2.9 101810 53
2003-04-09 07:17:18 51°18.753 3°3.789 6.7 94 2.9 101810 55
2003-04-09 07:17:23 51°18.753 3°3.788 7.5 97 2.9 101810 55
2003-04-09 07:17:28 51°18.754 3°3.787 7 89 2.9 101810 54
2003-04-09 07:17:32 51°18.754 3°3.787 7.8 89 2.9 101810 54
2003-04-09 07:17:38 51°18.754 3°3.786 7.1 90 2.9 101810 52
2003-04-09 07:17:43 51°18.754 3°3.785 7.1 91 2.9 101810 52
2003-04-09 07:17:48 51°18.754 3°3.784 6.9 89 2.9 101810 48
2003-04-09 07:17:53 51°18.754 3°3.784 8.7 92 2.9 101810 48
2003-04-09 07:17:58 51°18.754 3°3.783 7.5 94 2.9 101810 50
2003-04-09 07:18:02 51°18.755 3°3.782 7.1 100 2.9 101810 50
2003-04-09 07:18:07 51°18.755 3°3.781 6.6 99 2.9 101810 50
2003-04-09 07:18:13 51°18.755 3°3.78 7.2 102 2.9 101810 50
2003-04-09 07:18:18 51°18.755 3°3.779 7.7 96 2.9 101810 49
2003-04-09 07:18:23 51°18.755 3°3.778 6.5 98 2.9 101810 49
2003-04-09 07:18:28 51°18.755 3°3.777 6.3 100 2.9 101810 49
2003-04-09 07:18:33 51°18.755 3°3.776 7.2 102 2.9 101810 49
2003-04-09 07:18:38 51°18.756 3°3.775 8.1 99 2.9 101810 50
2003-04-09 07:18:43 51°18.756 3°3.774 4.9 105 2.9 101810 50
2003-04-09 07:18:48 51°18.756 3°3.773 4.8 107 2.9 101810 51
2003-04-09 07:18:52 51°18.756 3°3.772 5.9 102 2.9 101810 51
2003-04-09 07:18:58 51°18.756 3°3.771 6.3 100 2.9 101810 51
2003-04-09 07:19:03 51°18.756 3°3.771 6 114 2.9 101810 51
2003-04-09 07:19:08 51°18.756 3°3.77 4.6 104 2.9 101810 51
2003-04-09 07:19:13 51°18.756 3°3.769 6.8 103 2.9 101810 51
2003-04-09 07:19:18 51°18.756 3°3.768 7.1 102 2.9 101810 51
2003-04-09 07:19:23 51°18.756 3°3.767 7.9 100 2.9 101810 51
2003-04-09 07:19:28 51°18.756 3°3.766 6.3 102 2.9 101810 51
2003-04-09 07:19:32 51°18.755 3°3.765 6.6 104 2.9 101810 51
2003-04-09 07:19:38 51°18.755 3°3.764 6.6 104 2.9 101810 51
2003-04-09 07:19:43 51°18.755 3°3.763 5.7 104 2.9 101810 51
2003-04-09 07:19:48 51°18.755 3°3.762 6.8 102 2.9 101800 53
2003-04-09 07:19:52 51°18.755 3°3.762 5.7 104 2.9 101800 53
2003-04-09 07:19:58 51°18.755 3°3.761 8.8 95 2.9 101800 46
2003-04-09 07:20:03 51°18.754 3°3.76 5.7 105 2.9 101800 46
2003-04-09 07:20:08 51°18.754 3°3.759 7.7 96 2.8 101800 46
2003-04-09 07:20:12 51°18.754 3°3.759 6.1 82 2.8 101800 46
2003-04-09 07:20:18 51°18.754 3°3.758 7.6 86 2.8 101800 45
2003-04-09 07:20:22 51°18.753 3°3.757 7.3 86 2.8 101800 45
2003-04-09 07:20:28 51°18.753 3°3.757 6.4 82 2.8 101800 47
2003-04-09 07:20:32 51°18.753 3°3.756 7 83 2.8 101800 47
2003-04-09 07:20:38 51°18.753 3°3.755 6.8 79 2.8 101800 48
2003-04-09 07:20:43 51°18.753 3°3.754 7.5 86 2.8 101800 48
2003-04-09 07:20:48 51°18.753 3°3.754 6.1 89 2.8 101800 50
2003-04-09 07:20:52 51°18.753 3°3.753 7 98 2.8 101800 50
2003-04-09 07:20:58 51°18.753 3°3.752 7.7 100 2.8 101800 53
2003-04-09 07:21:03 51°18.753 3°3.752 8.6 95 2.8 101800 53
2003-04-09 07:21:08 51°18.753 3°3.751 7.7 92 2.9 101800 54
2003-04-09 07:21:12 51°18.753 3°3.751 8.3 88 2.9 101800 54
2003-04-09 07:21:18 51°18.753 3°3.75 6.2 90 2.9 101800 50
2003-04-09 07:21:23 51°18.753 3°3.749 7.1 89 2.9 101800 50
2003-04-09 07:21:28 51°18.752 3°3.749 7.2 88 2.8 101790 45
2003-04-09 07:21:33 51°18.752 3°3.748 6.5 90 2.8 101790 45
2003-04-09 07:21:38 51°18.752 3°3.747 6.9 78 2.8 101800 42
2003-04-09 07:21:43 51°18.752 3°3.747 6.3 87 2.8 101800 42
2003-04-09 07:21:48 51°18.752 3°3.746 7 82 2.8 101790 41
2003-04-09 07:21:52 51°18.752 3°3.746 6.8 92 2.8 101790 41
2003-04-09 07:21:58 51°18.751 3°3.745 6.1 82 2.8 101800 44
2003-04-09 07:22:03 51°18.751 3°3.744 8.6 83 2.8 101800 44
2003-04-09 07:22:08 51°18.751 3°3.744 8.7 82 2.8 101790 47
2003-04-09 07:22:12 51°18.75 3°3.743 7.8 78 2.8 101790 47
2003-04-09 07:22:18 51°18.749 3°3.742 9.1 77 2.8 101800 49
2003-04-09 07:22:23 51°18.749 3°3.741 8 76 2.8 101800 49
2003-04-09 07:22:28 51°18.749 3°3.741 7.7 66 2.8 101790 50
2003-04-09 07:22:32 51°18.749 3°3.74 8.7 70 2.8 101790 50
2003-04-09 07:22:38 51°18.749 3°3.739 8.4 71 2.8 101790 47
2003-04-09 07:22:43 51°18.748 3°3.739 8.6 72 2.8 101790 47
2003-04-09 07:22:48 51°18.748 3°3.738 8.5 76 2.8 101790 48
2003-04-09 07:22:53 51°18.748 3°3.738 8.9 83 2.8 101790 48
2003-04-09 07:22:58 51°18.747 3°3.737 8.4 80 2.8 101800 50
2003-04-09 07:23:02 51°18.747 3°3.736 8.3 75 2.8 101800 50
2003-04-09 07:23:08 51°18.747 3°3.735 7.6 76 2.9 101790 52
2003-04-09 07:23:12 51°18.747 3°3.734 7.9 75 2.9 101790 52
2003-04-09 07:23:18 51°18.746 3°3.734 8.8 77 2.9 101790 52
2003-04-09 07:23:22 51°18.745 3°3.734 8.1 84 2.9 101790 52
2003-04-09 07:23:28 51°18.744 3°3.732 7.5 69 2.9 101790 51
2003-04-09 07:23:32 51°18.744 3°3.732 7.8 73 2.9 101790 51
2003-04-09 07:23:38 51°18.744 3°3.731 7.3 79 2.9 101790 48
2003-04-09 07:23:43 51°18.743 3°3.73 9 82 2.9 101790 48
2003-04-09 07:23:48 51°18.743 3°3.729 8.5 83 2.9 101800 49
2003-04-09 07:23:53 51°18.743 3°3.728 7.8 82 2.9 101800 49
2003-04-09 07:23:58 51°18.743 3°3.728 7 77 2.9 101800 48
2003-04-09 07:24:02 51°18.743 3°3.727 7.2 77 2.9 101800 48
2003-04-09 07:24:08 51°18.744 3°3.726 6.4 73 2.9 101800 49
2003-04-09 07:24:13 51°18.745 3°3.726 7.2 76 2.9 101800 49
2003-04-09 07:24:18 51°18.745 3°3.725 6.6 76 2.9 101800 50
2003-04-09 07:24:23 51°18.745 3°3.725 6.6 78 2.9 101800 50
2003-04-09 07:24:28 51°18.744 3°3.725 7 83 2.9 101800 49
2003-04-09 07:24:33 51°18.744 3°3.724 6.6 75 2.9 101800 49
2003-04-09 07:24:38 51°18.741 3°3.722 7.2 80 2.9 101810 48
2003-04-09 07:24:43 51°18.74 3°3.72 7.2 80 2.9 101810 48
2003-04-09 07:24:48 51°18.739 3°3.72 7.4 79 2.9 101810 48
2003-04-09 07:24:52 51°18.738 3°3.72 6.9 78 2.9 101810 48
2003-04-09 07:24:58 51°18.735 3°3.718 8 73 2.9 101810 45
2003-04-09 07:25:03 51°18.732 3°3.717 8.4 74 2.9 101810 45
2003-04-09 07:25:08 51°18.73 3°3.716 7.1 72 2.9 101810 46
2003-04-09 07:25:13 51°18.727 3°3.717 8.1 75 2.9 101810 46
2003-04-09 07:25:18 51°18.723 3°3.717 7.2 79 2.9 101810 49
2003-04-09 07:25:23 51°18.719 3°3.717 9.4 80 2.9 101810 49
2003-04-09 07:25:28 51°18.714 3°3.714 9.5 84 3 101810 52
2003-04-09 07:25:32 51°18.711 3°3.713 9 97 3 101810 52
2003-04-09 07:25:38 51°18.705 3°3.708 6.7 104 3 101810 55
2003-04-09 07:25:43 51°18.701 3°3.702 4.2 108 3 101810 55
2003-04-09 07:25:48 51°18.696 3°3.695 6.6 120 3 101810 53
2003-04-09 07:25:52 51°18.693 3°3.688 7.6 126 3 101810 53
2003-04-09 07:25:58 51°18.69 3°3.676 7.2 144 3 101800 49
2003-04-09 07:26:03 51°18.688 3°3.664 5.7 144 3 101800 49
2003-04-09 07:26:08 51°18.687 3°3.653 5.5 148 3 101810 47
2003-04-09 07:26:13 51°18.687 3°3.64 3.5 180 3 101810 47
2003-04-09 07:26:18 51°18.688 3°3.628 3.7 190 2.9 101820 45
2003-04-09 07:26:22 51°18.69 3°3.618 5 200 2.9 101820 45
2003-04-09 07:26:28 51°18.694 3°3.604 6.2 214 2.9 101820 46
2003-04-09 07:26:32 51°18.697 3°3.595 6.5 231 2.9 101820 46
2003-04-09 07:26:38 51°18.704 3°3.584 5.9 235 2.9 101830 44
2003-04-09 07:26:42 51°18.709 3°3.577 7.1 241 2.9 101830 44
2003-04-09 07:26:48 51°18.717 3°3.569 6.6 247 2.9 101830 41
2003-04-09 07:26:52 51°18.723 3°3.564 8.7 258 2.9 101830 41
2003-04-09 07:26:58 51°18.733 3°3.56 9.1 267 2.9 101830 43
2003-04-09 07:27:03 51°18.741 3°3.559 7.4 279 2.9 101830 43
2003-04-09 07:27:08 51°18.749 3°3.559 6.6 287 2.9 101830 42
2003-04-09 07:27:13 51°18.758 3°3.561 8.4 296 2.9 101830 42
2003-04-09 07:27:18 51°18.768 3°3.565 10.1 300 2.9 101820 43
2003-04-09 07:27:23 51°18.778 3°3.57 9.8 298 2.9 101820 43
2003-04-09 07:27:28 51°18.789 3°3.578 10.8 311 2.8 101830 44
2003-04-09 07:27:32 51°18.798 3°3.585 11.2 307 2.8 101830 44
2003-04-09 07:27:38 51°18.813 3°3.598 10 305 2.8 101810 47
2003-04-09 07:27:43 51°18.825 3°3.61 10.1 309 2.8 101810 47
2003-04-09 07:27:48 51°18.837 3°3.623 11.6 312 2.9 101800 48
2003-04-09 07:27:52 51°18.847 3°3.634 11.4 314 2.9 101800 48
2003-04-09 07:27:58 51°18.863 3°3.65 12.9 318 2.9 101800 49
2003-04-09 07:28:03 51°18.876 3°3.664 12.9 320 2.9 101800 49
2003-04-09 07:28:08 51°18.889 3°3.68 12.5 320 2.8 101800 45
2003-04-09 07:28:12 51°18.899 3°3.693 12.1 324 2.8 101800 45
2003-04-09 07:28:18 51°18.913 3°3.714 12.8 328 2.8 101770 48
2003-04-09 07:28:23 51°18.926 3°3.732 11.7 328 2.8 101770 48
2003-04-09 07:28:28 51°18.938 3°3.749 12.2 326 2.8 101760 47
2003-04-09 07:28:32 51°18.949 3°3.762 12.1 317 2.8 101760 47
2003-04-09 07:28:38 51°18.965 3°3.781 12.2 323 2.8 101760 48
2003-04-09 07:28:42 51°18.975 3°3.794 14.3 318 2.8 101760 48
2003-04-09 07:28:48 51°18.991 3°3.814 13.1 317 2.8 101770 48
2003-04-09 07:28:52 51°19.002 3°3.827 13.1 318 2.8 101770 48
2003-04-09 07:28:56 51°19.013 3°3.84 12.5 324 2.8 101770 51
2003-04-09 07:29:03 51°19.03 3°3.865 12.7 327 2.8 101770 51
2003-04-09 07:29:08 51°19.042 3°3.885 12.8 330 2.8 101770 46
2003-04-09 07:29:13 51°19.054 3°3.906 13 330 2.8 101770 46
2003-04-09 07:29:18 51°19.064 3°3.927 12.2 334 2.8 101780 46
2003-04-09 07:29:23 51°19.075 3°3.948 13 332 2.8 101780 46
2003-04-09 07:29:28 51°19.085 3°3.97 14.9 336 2.8 101770 47
2003-04-09 07:29:32 51°19.093 3°3.987 13.6 334 2.8 101770 47
2003-04-09 07:29:38 51°19.106 3°4.012 15.8 333 2.7 101780 45
2003-04-09 07:29:43 51°19.115 3°4.034 14.2 336 2.7 101780 45
2003-04-09 07:29:48 51°19.126 3°4.055 14.7 334 2.7 101770 47
2003-04-09 07:29:52 51°19.134 3°4.071 13.5 333 2.7 101770 47
2003-04-09 07:29:58 51°19.147 3°4.096 13.8 334 2.8 101770 47
2003-04-09 07:30:02 51°19.156 3°4.113 14.3 337 2.8 101770 47
2003-04-09 07:30:08 51°19.168 3°4.138 14 334 2.8 101770 46
2003-04-09 07:30:12 51°19.176 3°4.153 14 324 2.8 101770 46
2003-04-09 07:30:18 51°19.188 3°4.173 13.4 318 2.7 101760 43
2003-04-09 07:30:23 51°19.199 3°4.186 12.6 305 2.7 101760 43
2003-04-09 07:30:28 51°19.21 3°4.195 12.3 301 2.8 101760 47
2003-04-09 07:30:32 51°19.218 3°4.2 10.8 289 2.8 101760 47
2003-04-09 07:30:38 51°19.23 3°4.206 9.6 279 2.7 101780 44
2003-04-09 07:30:42 51°19.238 3°4.208 11.4 275 2.7 101780 44
2003-04-09 07:30:48 51°19.248 3°4.208 9.9 265 2.7 101770 41
2003-04-09 07:30:52 51°19.255 3°4.206 9.2 257 2.7 101770 41
2003-04-09 07:30:58 51°19.265 3°4.202 8.2 254 2.7 101800 42
2003-04-09 07:31:03 51°19.272 3°4.197 7.3 249 2.7 101800 42
2003-04-09 07:31:08 51°19.278 3°4.192 6.6 244 2.7 101820 42
2003-04-09 07:31:13 51°19.284 3°4.186 5.6 242 2.7 101820 42
2003-04-09 07:31:18 51°19.29 3°4.179 4.9 240 2.7 101830 41
2003-04-09 07:31:22 51°19.294 3°4.173 4.8 234 2.7 101830 41
2003-04-09 07:31:28 51°19.299 3°4.164 5.5 223 2.7 101830 40
2003-04-09 07:31:33 51°19.303 3°4.154 5.7 222 2.7 101830 40
2003-04-09 07:31:38 51°19.306 3°4.144 4.8 215 2.7 101830 39
2003-04-09 07:31:42 51°19.308 3°4.136 4 199 2.7 101830 39
2003-04-09 07:31:46 51°19.309 3°4.128 3.6 175 2.7 101840 44
2003-04-09 07:31:52 51°19.309 3°4.115 3.1 174 2.7 101840 44
2003-04-09 07:31:58 51°19.308 3°4.103 3.1 159 2.7 101840 45
2003-04-09 07:32:03 51°19.307 3°4.093 5.2 142 2.7 101840 45
2003-04-09 07:32:08 51°19.305 3°4.083 5.8 141 2.7 101830 48
2003-04-09 07:32:13 51°19.302 3°4.074 6.1 121 2.7 101830 48
2003-04-09 07:32:18 51°19.299 3°4.065 5.6 123 2.8 101830 49
2003-04-09 07:32:22 51°19.297 3°4.059 7.8 126 2.8 101830 49
2003-04-09 07:32:27 51°19.295 3°4.051 5.9 119 2.8 101830 46
2003-04-09 07:32:33 51°19.292 3°4.043 5.9 115 2.8 101830 46
2003-04-09 07:32:38 51°19.29 3°4.036 5.1 115 2.8 101820 45
2003-04-09 07:32:43 51°19.287 3°4.029 5.7 113 2.8 101820 45
2003-04-09 07:32:48 51°19.284 3°4.022 5.5 112 2.8 101820 45
2003-04-09 07:32:52 51°19.282 3°4.017 6.5 115 2.8 101820 45
2003-04-09 07:32:56 51°19.28 3°4.012 6.6 111 2.9 101820 48
2003-04-09 07:33:03 51°19.277 3°4.004 5.6 109 2.9 101820 48
2003-04-09 07:33:08 51°19.274 3°3.999 5.3 112 2.8 101820 46
2003-04-09 07:33:12 51°19.272 3°3.995 4.4 109 2.8 101820 46
2003-04-09 07:33:18 51°19.269 3°3.99 5.5 104 2.8 101810 44
2003-04-09 07:33:23 51°19.266 3°3.985 6 102 2.8 101810 44
2003-04-09 07:33:28 51°19.263 3°3.981 5.2 100 2.8 101820 42
2003-04-09 07:33:32 51°19.26 3°3.978 5.8 104 2.8 101820 42
2003-04-09 07:33:38 51°19.257 3°3.974 6.7 99 2.8 101810 44
2003-04-09 07:33:43 51°19.255 3°3.97 6.3 93 2.8 101810 44
2003-04-09 07:33:48 51°19.252 3°3.967 5.4 100 2.8 101820 47
2003-04-09 07:33:52 51°19.25 3°3.964 7.2 95 2.8 101820 47
2003-04-09 07:33:58 51°19.247 3°3.96 7.2 96 2.8 101820 46
2003-04-09 07:34:03 51°19.245 3°3.957 6.9 97 2.8 101820 46
2003-04-09 07:34:08 51°19.242 3°3.954 7.8 96 2.8 101810 46
2003-04-09 07:34:13 51°19.24 3°3.952 9.7 95 2.8 101810 46
2003-04-09 07:34:18 51°19.238 3°3.95 8.5 90 2.8 101820 47
2003-04-09 07:34:23 51°19.235 3°3.948 9.7 88 2.8 101820 47
2003-04-09 07:34:28 51°19.233 3°3.946 9.4 90 2.8 101810 47
2003-04-09 07:34:32 51°19.231 3°3.945 7.7 89 2.8 101810 47
2003-04-09 07:34:38 51°19.229 3°3.942 7.5 87 2.9 101820 50
2003-04-09 07:34:43 51°19.227 3°3.94 8.6 89 2.9 101820 50
2003-04-09 07:34:48 51°19.224 3°3.937 8.6 94 2.9 101810 48
2003-04-09 07:34:52 51°19.222 3°3.936 8 82 2.9 101810 48
2003-04-09 07:34:58 51°19.22 3°3.933 9 87 2.9 101810 46
2003-04-09 07:35:03 51°19.218 3°3.931 8.2 90 2.9 101810 46
2003-04-09 07:35:08 51°19.216 3°3.929 8.3 85 2.9 101810 45
2003-04-09 07:35:12 51°19.214 3°3.928 9.1 78 2.9 101810 45
2003-04-09 07:35:18 51°19.212 3°3.925 9.4 81 2.9 101810 45
2003-04-09 07:35:23 51°19.209 3°3.923 10.7 87 2.9 101810 45
2003-04-09 07:35:28 51°19.206 3°3.921 9.5 93 2.9 101810 46
2003-04-09 07:35:32 51°19.204 3°3.919 8.2 95 2.9 101810 46
2003-04-09 07:35:38 51°19.2 3°3.915 9.5 96 3 101810 47
2003-04-09 07:35:43 51°19.197 3°3.913 8.4 98 3 101810 47
2003-04-09 07:35:48 51°19.194 3°3.911 8.4 100 3 101800 49
2003-04-09 07:35:52 51°19.191 3°3.908 9.3 91 3 101800 49
2003-04-09 07:35:58 51°19.187 3°3.904 7.8 101 3 101810 45
2003-04-09 07:36:03 51°19.183 3°3.901 8.2 97 3 101810 45
2003-04-09 07:36:08 51°19.179 3°3.897 7.2 102 2.9 101810 43
2003-04-09 07:36:12 51°19.176 3°3.893 6.7 104 2.9 101810 43
2003-04-09 07:36:18 51°19.172 3°3.888 6.5 101 2.9 101810 45
2003-04-09 07:36:22 51°19.168 3°3.884 5.7 106 2.9 101810 45
2003-04-09 07:36:27 51°19.165 3°3.879 8.7 98 2.9 101810 45
2003-04-09 07:36:32 51°19.161 3°3.873 7.5 102 2.9 101810 45
2003-04-09 07:36:38 51°19.156 3°3.866 5.2 104 2.9 101820 44
2003-04-09 07:36:43 51°19.152 3°3.859 6 105 2.9 101820 44
2003-04-09 07:36:48 51°19.149 3°3.852 6.4 120 2.9 101810 45
2003-04-09 07:36:53 51°19.146 3°3.844 6.1 122 2.9 101810 45
2003-04-09 07:36:58 51°19.143 3°3.837 6.6 126 2.9 101820 46
2003-04-09 07:37:03 51°19.141 3°3.829 7 124 2.9 101820 46
2003-04-09 07:37:08 51°19.139 3°3.821 6.6 125 2.9 101810 43
2003-04-09 07:37:12 51°19.137 3°3.815 7.5 127 2.9 101810 43
2003-04-09 07:37:18 51°19.135 3°3.805 7.3 123 2.9 101820 43
2003-04-09 07:37:23 51°19.134 3°3.797 6.7 124 2.9 101820 43
2003-04-09 07:37:28 51°19.131 3°3.788 5.5 120 2.9 101820 45
2003-04-09 07:37:32 51°19.128 3°3.782 6.1 119 2.9 101820 45
2003-04-09 07:37:37 51°19.125 3°3.774 6.5 117 2.9 101820 45
2003-04-09 07:37:43 51°19.121 3°3.765 5.6 108 2.9 101820 45
2003-04-09 07:37:48 51°19.118 3°3.757 3.8 105 2.9 101820 47
2003-04-09 07:37:52 51°19.115 3°3.751 6.2 112 2.9 101820 47
2003-04-09 07:37:58 51°19.11 3°3.742 5.7 116 2.9 101820 50
2003-04-09 07:38:03 51°19.107 3°3.734 5.3 112 2.9 101820 50
2003-04-09 07:38:07 51°19.104 3°3.728 7.1 111 2.9 101820 46
2003-04-09 07:38:13 51°19.1 3°3.72 7.7 111 2.9 101820 46
2003-04-09 07:38:18 51°19.096 3°3.713 7.7 117 2.9 101820 41
2003-04-09 07:38:23 51°19.093 3°3.706 5.5 100 2.9 101820 41
2003-04-09 07:38:28 51°19.089 3°3.699 6.9 102 2.9 101810 43
2003-04-09 07:38:33 51°19.086 3°3.693 6.8 112 2.9 101810 43
2003-04-09 07:38:38 51°19.083 3°3.687 7.2 110 2.9 101820 43
2003-04-09 07:38:43 51°19.08 3°3.681 7.6 110 2.9 101820 43
2003-04-09 07:38:48 51°19.076 3°3.675 7 111 2.8 101810 43
2003-04-09 07:38:52 51°19.074 3°3.67 7 109 2.8 101810 43
2003-04-09 07:38:58 51°19.069 3°3.663 8.3 113 2.9 101820 44
2003-04-09 07:39:03 51°19.065 3°3.657 6.7 108 2.9 101820 44
2003-04-09 07:39:08 51°19.061 3°3.65 7.3 113 2.8 101810 40
2003-04-09 07:39:13 51°19.056 3°3.645 6.3 101 2.8 101810 40
2003-04-09 07:39:16 51°19.054 3°3.642 6 103 2.8 101810 40
2003-04-09 07:39:23 51°19.049 3°3.634 5.5 112 2.8 101810 40
2003-04-09 07:39:28 51°19.046 3°3.629 6.7 109 2.8 101810 39
2003-04-09 07:39:32 51°19.044 3°3.626 6.3 113 2.8 101810 39
2003-04-09 07:39:38 51°19.041 3°3.621 6.7 112 2.8 101810 40
2003-04-09 07:39:43 51°19.039 3°3.617 5 109 2.8 101810 40
2003-04-09 07:39:48 51°19.037 3°3.612 4.7 105 2.8 101820 45
2003-04-09 07:39:52 51°19.035 3°3.609 6.9 120 2.8 101820 45
2003-04-09 07:39:58 51°19.033 3°3.604 9.2 122 2.8 101820 42
2003-04-09 07:40:03 51°19.031 3°3.599 7.1 120 2.8 101820 42
2003-04-09 07:40:08 51°19.029 3°3.594 7 111 2.8 101820 39
2003-04-09 07:40:12 51°19.028 3°3.591 6.4 113 2.8 101820 39
2003-04-09 07:40:18 51°19.025 3°3.586 6.3 110 2.8 101820 40
2003-04-09 07:40:23 51°19.024 3°3.581 7.1 121 2.8 101820 40
2003-04-09 07:40:28 51°19.023 3°3.576 7.9 123 2.8 101820 42
2003-04-09 07:40:32 51°19.022 3°3.572 6.2 123 2.8 101820 42
2003-04-09 07:40:38 51°19.02 3°3.566 6.4 120 2.8 101820 41
2003-04-09 07:40:43 51°19.018 3°3.561 8.1 124 2.8 101820 41
2003-04-09 07:40:48 51°19.017 3°3.557 7.8 119 2.8 101820 41
2003-04-09 07:40:53 51°19.016 3°3.553 6.9 119 2.8 101820 41
2003-04-09 07:40:58 51°19.015 3°3.548 6.6 118 2.8 101820 42
2003-04-09 07:41:02 51°19.014 3°3.544 7.8 118 2.8 101820 42
2003-04-09 07:41:08 51°19.012 3°3.538 8.1 114 2.8 101830 43
2003-04-09 07:41:12 51°19.011 3°3.535 7.2 122 2.8 101830 43
2003-04-09 07:41:18 51°19.009 3°3.529 7.2 114 2.8 101820 43
2003-04-09 07:41:23 51°19.007 3°3.524 7.4 117 2.8 101820 43
2003-04-09 07:41:28 51°19.005 3°3.519 8.2 121 2.8 101820 46
2003-04-09 07:41:32 51°19.003 3°3.515 6.4 115 2.8 101820 46
2003-04-09 07:41:38 51°19 3°3.51 7.4 120 2.8 101810 44
2003-04-09 07:41:43 51°18.999 3°3.506 7.2 125 2.8 101810 44
2003-04-09 07:41:48 51°18.997 3°3.501 7.3 118 2.8 101820 42
2003-04-09 07:41:53 51°18.996 3°3.497 8.6 125 2.8 101820 42
2003-04-09 07:41:58 51°18.994 3°3.492 8.1 124 2.7 101810 40
2003-04-09 07:42:03 51°18.992 3°3.488 7.2 119 2.7 101810 40
2003-04-09 07:42:08 51°18.991 3°3.484 7.3 113 2.8 101820 42
2003-04-09 07:42:13 51°18.989 3°3.481 9.2 119 2.8 101820 42
2003-04-09 07:42:18 51°18.987 3°3.477 7.4 119 2.8 101820 43
2003-04-09 07:42:23 51°18.986 3°3.473 10 121 2.8 101820 43
2003-04-09 07:42:28 51°18.984 3°3.468 9 124 2.8 101820 44
2003-04-09 07:42:33 51°18.983 3°3.464 8.3 123 2.8 101820 44
2003-04-09 07:42:38 51°18.981 3°3.46 10.1 122 2.8 101820 46
2003-04-09 07:42:43 51°18.979 3°3.455 8.7 119 2.8 101820 46
2003-04-09 07:42:48 51°18.978 3°3.452 7.9 118 2.8 101820 44
2003-04-09 07:42:53 51°18.977 3°3.449 8.3 124 2.8 101820 44
2003-04-09 07:42:58 51°18.976 3°3.444 8 135 2.8 101810 42
2003-04-09 07:43:03 51°18.975 3°3.44 8.6 128 2.8 101810 42
2003-04-09 07:43:08 51°18.973 3°3.435 7.3 123 2.8 101820 40
2003-04-09 07:43:12 51°18.972 3°3.431 8.4 127 2.8 101820 40
2003-04-09 07:43:18 51°18.97 3°3.426 8.6 126 2.8 101810 44
2003-04-09 07:43:23 51°18.968 3°3.421 8.4 126 2.8 101810 44
2003-04-09 07:43:28 51°18.967 3°3.417 8.4 120 2.8 101820 44
2003-04-09 07:43:32 51°18.966 3°3.414 7.8 119 2.8 101820 44
2003-04-09 07:43:38 51°18.964 3°3.408 7.8 117 2.8 101810 42
2003-04-09 07:43:43 51°18.963 3°3.404 9.3 131 2.8 101810 42
2003-04-09 07:43:48 51°18.96 3°3.399 8.8 127 2.8 101810 44
2003-04-09 07:43:53 51°18.958 3°3.394 9.2 128 2.8 101810 44
2003-04-09 07:43:58 51°18.957 3°3.39 9.3 131 2.8 101810 43
2003-04-09 07:44:02 51°18.955 3°3.386 8.3 128 2.8 101810 43
2003-04-09 07:44:08 51°18.954 3°3.381 7.9 131 2.9 101820 42
2003-04-09 07:44:13 51°18.952 3°3.377 7.7 128 2.9 101820 42
2003-04-09 07:44:18 51°18.952 3°3.373 7.2 127 2.7 101810 41
2003-04-09 07:44:23 51°18.951 3°3.369 7 126 2.7 101810 41
2003-04-09 07:44:28 51°18.95 3°3.365 8.4 127 2.7 101820 38
2003-04-09 07:44:32 51°18.948 3°3.362 6.9 128 2.7 101820 38
2003-04-09 07:44:38 51°18.948 3°3.358 6.8 133 2.7 101810 38
2003-04-09 07:44:43 51°18.947 3°3.354 7.4 126 2.7 101810 38
2003-04-09 07:44:48 51°18.947 3°3.349 7.3 134 2.6 101810 39
2003-04-09 07:44:53 51°18.946 3°3.344 7 134 2.6 101810 39
2003-04-09 07:44:58 51°18.945 3°3.34 7 137 2.7 101810 39
2003-04-09 07:45:03 51°18.944 3°3.336 7 127 2.7 101810 39
2003-04-09 07:45:08 51°18.943 3°3.332 8.1 135 2.7 101810 40
2003-04-09 07:45:12 51°18.943 3°3.329 7.5 135 2.7 101810 40
2003-04-09 07:45:18 51°18.941 3°3.323 8.3 136 2.7 101820 43
2003-04-09 07:45:23 51°18.941 3°3.319 7.6 131 2.7 101820 43
2003-04-09 07:45:28 51°18.94 3°3.315 8.4 135 2.8 101820 46
2003-04-09 07:45:32 51°18.94 3°3.312 7.5 136 2.8 101820 46
2003-04-09 07:45:38 51°18.94 3°3.307 7.9 134 2.8 101820 44
2003-04-09 07:45:43 51°18.939 3°3.303 8.3 137 2.8 101820 44
2003-04-09 07:45:48 51°18.939 3°3.299 7.4 135 2.8 101820 46
2003-04-09 07:45:53 51°18.939 3°3.296 6.6 143 2.8 101820 46
2003-04-09 07:45:58 51°18.939 3°3.293 6.7 146 2.8 101820 43
2003-04-09 07:46:03 51°18.938 3°3.289 6.6 146 2.8 101820 43
2003-04-09 07:46:08 51°18.938 3°3.285 7.2 145 2.8 101820 44
2003-04-09 07:46:13 51°18.937 3°3.281 7.1 144 2.8 101820 44
2003-04-09 07:46:18 51°18.937 3°3.277 5.6 145 2.8 101820 44
2003-04-09 07:46:22 51°18.937 3°3.274 6.5 145 2.8 101820 44
2003-04-09 07:46:28 51°18.936 3°3.27 6.5 145 2.8 101820 42
2003-04-09 07:46:32 51°18.936 3°3.267 4.9 160 2.8 101820 42
2003-04-09 07:46:38 51°18.936 3°3.262 4.9 150 2.7 101820 41
2003-04-09 07:46:43 51°18.936 3°3.259 6.9 154 2.7 101820 41